Hourly Data Report for June 15, 2021

DRYDEN REGIONAL
ONTARIO
Current Station Operator: NAVCAN

49°49'39.000" N
92°44'39.000" W
412.70 m
6032125
71527
YHD

Download Data

Hourly Data (June 2021)
Hourly Data Report for June 15, 2021
TIME
LST
Temp Definition
°C
Dew Point Definition
°C
Rel Hum Definition
%
Precip. Amount Definition
mm

Wind Dir Definition
10's deg

Wind Spd Definition
km/h
Visibility Definition
km
Stn Press Definition
kPa
Hmdx Definition


Wind Chill Definition


Weather Definition


00:00 13.8 11.2 84 0.0 LegendMM 4 16.1 97.39     LegendNANA
01:00 12.6 12.1 97 0.0 5 4 16.1 97.40     LegendNANA
02:00 11.9 11.6 98 0.0 5 4 16.1 97.44     LegendNANA
03:00 11.4 11.2 99 0.0   0 1.0 97.47     Fog
04:00 11.5 11.4 99 0.0 8 5 11.3 97.48     LegendNANA
05:00 12.0 11.7 98 0.0 LegendMM 4 16.1 97.52     LegendNANA
06:00 13.0 12.2 95 0.0   0 16.1 97.54     LegendNANA
07:00 13.8 12.9 94 0.0 LegendMM 4 16.1 97.60     LegendNANA
08:00 15.8 12.9 83 0.0 7 5 16.1 97.62     LegendNANA
09:00 17.8 12.7 72 0.0 10 9 16.1 97.61     LegendNANA
10:00 19.2 12.2 63 0.0 5 8 16.1 97.55     LegendNANA
11:00 18.8 12.6 67 0.0 LegendMM 4 16.1 97.56     LegendNANA
12:00 19.5 12.3 63 0.0   0 16.1 97.55     LegendNANA
13:00 20.0 12.1 60 0.0 7 5 16.1 97.50     LegendNANA
14:00 21.5 11.8 53 0.0 9 9 16.1 97.45     LegendNANA
15:00 21.8 11.4 51 0.0 8 9 16.1 97.40     LegendNANA
16:00 22.9 9.8 43 0.0 8 8 16.1 97.37     LegendNANA
17:00 23.2 8.5 39 0.0 4 5 16.1 97.33     LegendNANA
18:00 23.1 10.9 46 0.0 15 9 16.1 97.30 25   LegendNANA
19:00 22.3 11.3 49 0.0 19 5 16.1 97.29     LegendNANA
20:00 21.0 11.5 54 0.0 18 5 16.1 97.26     LegendNANA
21:00 19.3 11.2 59 0.0   0 16.1 97.24     LegendNANA
22:00 18.1 10.8 62 0.0 13 4 16.1 97.21     LegendNANA
23:00 17.5 10.8 65 0.0 16 4 16.1 97.21     LegendNANA

Notes on Data Quality.

Legend

  • E = Estimated
  • M = Missing
  • NA = Not Available*
  • [empty] = Indicates an unobserved value
Date modified: